Terminal Aerodrome Forecast
Issued by NWS

Home | Current Version | Previous Version | Text Only | Print | Product List | Glossary On
Versions: 1 2 3 4 5 6 7 8 9 10 11 12 13 14 15 16 17 18 19 20 21 22 23 24 25 26 27 28 29 30 31 32 33 34 35 36 37 38 39 40 41 42
000
FTUS43 KDMX 050540
TAFFOD
TAF
KFOD 050540Z 0506/0606 19008KT P6SM SKC
     FM050900 20008KT 5SM BR FEW200
     FM051300 17009KT P6SM BKN120
     FM051600 18015G23KT P6SM BKN120
     FM060000 23008KT P6SM BKN035=

USA.gov is the U.S. government's official web portal to all federal, state and local government web resources and services.